loading
|

OBJECT A, 60327

Orbit data source: Space-Track

OBJECT A, 60327 is a satellite owned by CNSA (CN) in GEO that was launched on Thu, 01 Aug 2024 UTC via a CHANG ZHENG 3B launch vehicle from the Xichang Space Center, China (XSC). Unknown objects in Earth's orbit typically refer to objects detected orbiting the Earth but have not yet been identified or cataloged. These objects could be anything from previously untracked satellites, spent rocket stages, debris from satellite collisions, or even natural meteoroids temporarily captured by Earth's gravity.

Next visibility unknown
Loading greatness...
OBJECT A details
Identifier
60327, 2024-135A
Orbit
GEO
Last TLE update9 hours ago
Origin
Flag of CNCNSA (CN / PRC)
ManufacturerCAST
Mission statusOperational
MissionUnknown
Bus & MotorDFH-4?, FY-25?
Mass~4,000 kg wet, ~2,000 kg dry
Launch date (UTC)
2024-08-01 (2 months ago)
Launch vehicle
CHANG ZHENG 3B
Launch site
Xichang Space Center, China (XSC)
Object typeUnknown
Radar Cross SectionLarge (>1 m²)

Expand to show TLE details & history

TLE from 9 hours ago
0 OBJECT A
1 60327U 24135A   24261.61299291 -.00000183  00000-0  00000-0 0  9990
2 60327   0.0230 116.3535 0001349 121.1354 133.3009  1.00269297  1100
Epoch: 2024-09-17T14:42Z
Definitive object data (Epoch: 2024-09-17T14:42:42.587Z)
Latitude-0.03353°
Longitude153.0868°
Altitude35,790.691 km
Speed3.074 km/s
True Right ascension00h 43m 09s
True Declination0° 02' 01"
Sunlit
Object was in daylight at TLE epoch
Predictive object data (real-time)
Latitude0.00272°
Longitude-77.19616°
Altitude35,787.465 km
Speed3.075 km/s
Apparent Right ascension08h 56m 40s
Apparent Declination-5° 21' 06"
Sunlit
Object is in daylight
Predictive observer data (real-time)
Local Sidereal Time16:09:19
Azimuth277.682° WNW
Elevation-17.331°
Doppler factor1
Orbital elements
Apogee35,794.051 km
Perigee35,782.675 km
Semi-major axis42,166.5 km
Eccentricity0.0001349
Inclination0.023°
RAAN116.3535°
Arg. of periapsis121.1354°
True anomaly133.31215°
Mean anomaly133.3009°
Eccentric anomaly133.30652°
Mean motion0.25066 °/min
BSTARUnknown
Period1436.19 mins
No data available
Other satellites on launch #135 in the year 2024 (2024-08-01 UTC)

OBJECT A Visibility forecast

Observer location: 39.9160978°, -105.1181434

OBJECT A is not visible in the next 10 days
Span
Click to sort rows by Start time (UTC) header in descending order
Start Az.
Max El. time (UTC)
Max El. Az.
Max El.
End time (UTC)
End Az.